Regional Weather Roundup
Issued by NWS Upton, NY

Current Version | Previous Version | Graphics & Text | Print | Product List | Glossary Off
Versions: 1 2 3 4 5 6 7 8 9 10 11 12 13 14 15 16 17 18 19 20 21 22 23 24 25 26 27

000
ASUS41 KOKX 270009
RWROKX

REGIONAL WEATHER ROUNDUP
NATIONAL WEATHER SERVICE NEW YORK NY
800 PM EDT MON JUN 26 2017

NOTE: "FAIR" INDICATES FEW OR NO CLOUDS BELOW 12,000 FEET WITH NO
SIGNIFICANT WEATHER AND/OR OBSTRUCTIONS TO VISIBILITY.

NYZ071-072-176-178-NJZ106-104-270100-
NEW YORK CITY METRO AREA

CITY           SKY/WX    TMP DP  RH WIND       PRES   REMARKS
Central Park   CLEAR     74  54  49 CALM      30.00S
Bronx Bot Gard   N/A     72  55  56 S3        29.99S
LaGuardia APRT PTCLDY    74  60  61 S13       29.97S
Kennedy INTL   PTCLDY    71  64  78 S18       29.99F
Breezy Point     N/A     66 N/A N/A S13G18      N/A
Newark/Liberty PTCLDY    77  45  32 W14       29.97S
Teterboro      CLEAR     77  46  33 W8        29.96S
$$

NYZ177-179-078>081-270100-
LONG ISLAND NEW YORK

CITY           SKY/WX    TMP DP  RH WIND       PRES   REMARKS
Jones Beach      N/A     68 N/A N/A S10         N/A
Matinecock PT    N/A    N/A N/A N/A S6G12       N/A
Farmingdale    CLEAR     72  57  60 MISG      29.99
MacArthur/ISP  PTCLDY    71  53  52 SW8       29.99S
Shirley        CLEAR     70  59  68 S9        30.00F
Mt Sinai Harb    N/A    N/A N/A N/A S10         N/A
Westhampton    CLEAR     69  55  60 SW10      30.01S
East Hampton   FAIR      68  58  69 SW7       30.00S
Montauk          N/A     68  62  81 VRB7      30.01S
$$

NYZ052-065-067-270100-
HUDSON VALLEY

CITY           SKY/WX    TMP DP  RH WIND       PRES   REMARKS
White Plains   CLEAR     70  49  47 VRB7      29.98S
Larchmont Harb   N/A     70 N/A N/A S18         N/A
Croton O-T Hud   N/A     75 N/A N/A SW8         N/A
Newburgh       PTCLDY    73  50  43 SW9       29.97S
Montgomery     CLEAR     71  49  45 SW7       29.96R
Poughkeepsie   PTCLDY    75  46  35 SW5       29.94S
Albany         MOCLDY    63  55  75 E6        29.98R
$$

NJZ001-105-106-008-010-013-015-019>022-104-270100-
NEW JERSEY

CITY           SKY/WX    TMP DP  RH WIND       PRES   REMARKS
Newark/Liberty PTCLDY    77  45  32 W14       29.97S
Teterboro      CLEAR     77  46  33 W8        29.96S
Caldwell       CLEAR     76  47  35 VRB3      29.98S
Somerville     CLEAR     73  51  46 CALM      29.96F
Linden         FAIR      77  43  29 W6        29.98S
Perth Amboy      N/A     75 N/A N/A W9          N/A
Sussex         CLEAR     72  50  45 CALM      29.97S
Andover          N/A     71  49  45 CALM      29.98F
Trenton        CLEAR     75  47  36 SW5       29.98F
Millville      CLEAR     74  53  48 CALM      30.00F
Atlantic City  CLEAR     78  48  34 SW6       30.01S
Wrightstown    NOT AVBL
Toms River     CLEAR     75  53  46 SW3       30.01S
Belmar         CLEAR     74  51  44 S6        30.00S
$$

PAZ047>061-062-071-270100-
EASTERN PENNSYLVANIA

CITY           SKY/WX    TMP DP  RH WIND       PRES   REMARKS
Philadelphia   PTCLDY    77  49  37 S8        29.99F
Allentown      CLEAR     73  47  39 SW7       29.98S
Scranton       CLEAR     73  46  38 SW10      29.97R
$$

CTZ002-004>006-009-010-012-RIZ004-006-007-MAZ004-011-015-270100-
SOUTHERN NEW ENGLAND
 IN CT

CITY           SKY/WX    TMP DP  RH WIND       PRES   REMARKS
Bradley INTL   PTCLDY    74  51  44 SW10      29.95R
Hartford       CLEAR     75  51  43 SW9       29.95R
Danbury        CLEAR     71  51  49 S8        29.99R
Wtrbury/Oxford PTCLDY    70  50  49 SW3       29.99S
Bridgeport     CLEAR     74  56  53 S12       29.97S
Meriden        CLEAR     71  52  50 S5        29.97R
New Haven      CLEAR     71  56  58 SW9       29.98R
Chester        FAIR      70  57  64 SW9G15    29.99S
Groton         CLEAR     68  58  70 SW10      29.98R
Wilimantic     PTCLDY    75  51  43 S7        29.97R

 IN RI

CITY           SKY/WX    TMP DP  RH WIND       PRES   REMARKS
Providence     PTCLDY    72  55  55 SW10      29.97
Block Island   CLEAR     67  60  78 SW12      30.00S
Westerly       CLEAR     70  56  61 S9        29.99S
 IN MA

CITY           SKY/WX    TMP DP  RH WIND       PRES   REMARKS
Boston         PTCLDY    73  56  54 S12       29.94R
Worcester      CLEAR     68  50  52 W6        29.98R
Westfield      CLOUDY    71  54  54 CALM      29.96R
Provincetown   CLEAR     67  59  75 S12       29.98R
Nantucket      CLEAR     63  62  97 SW9       30.01S
$$

ANZ330-335-338-340-345-350-353-355-270100-
COASTAL MARINE OBSERVATIONS


STATION/POSITION TIME  SKY/WX   TEMP    WIND        PRES    VSBY  WAVE
                                AIR SEA DIR/SP/G                  HT/PER
                 (UTC)          (F)     (DEG/KT/KT) (MB)    (MI)  (FT/S)
NY HARB ENTRANCE 2250            70 68  180/ 14/ 16 1015.6          2/ 8
20 S FIRE ISLAND 2350            70 70  180/ 14/ 16 1015.5          2/ 3
GREAT SOUTH BAY  2315            71 77  200/ 14/ 17   N/A
23 SSW MONTAUK P 2250            69 67              1016.4          3/ 6
15 E BARNEGAT LI 2330               66                N/A           2/ 7
HUDSON CANYON    2350            70 71  170/  8/  8 1016.5          2/ 7
KINGS POINT      2330            71 67  210/ 17/ 19 1014.9
EXECUTION ROCKS  2345            72     170/ 16/ 19   N/A
CENTRAL LI SOUND 2315            73     200/ 16/ 19   N/A           1
EASTERN LI SOUND NOT AVBL
ROBBINS REEF     2324                   230/ 13/ 16 1015.5
$$


>>>>>>>>>>>>>>>>>>>>>>>>>>>> KEY <<<<<<<<<<<<<<<<<<<<<<<<<<<
>                                                          <
>     SKY/WX - Sky Condition/Present Weather               <
>     TMP    - Temperature in Fahrenheit                   <
>     DP     - Dew Point in Fahrenheit                     <
>     RH     - Relative Humidity in Percent                <
>     WIND   - Direction (from) and Speed in MPH           <
>     PRES   - Mean Sea Level Pressure (inches of Hg)      <
>     WCI    - Wind Chill Index                            <
>     VSB    - VISIBILITY IN MILES                         <
>     HX     - HEAT INDEX                                  <
>     TC     - TEMPERATURE IN CELSIUS                      <
>     VRB    - VARIABLE WIND DIRECTION                     <
>                                                          <
>>>>>>>>>>>>>>>>>>>>>>>>>>>> KEY <<<<<<<<<<<<<<<<<<<<<<<<<<<




USA.gov is the U.S. government's official web portal to all federal, state and local government web resources and services.